Regional Weather Roundup
Issued by NWS

Home | Current Version | Previous Version | Text Only | Print | Product List | Glossary On
Versions: 1 2 3 4 5 6 7 8 9 10 11 12 13 14 15 16 17 18 19 20 21 22 23 24 25 26 27 28 29 30 31 32 33 34 35 36 37 38 39 40 41 42 43 44 45 46 47 48 49 50
000
ASCA44 KEWX 261920
RWRMX

LATIN AMERICA AND CARIBBEAN REGIONAL WEATHER ROUNDUP
NATIONAL WEATHER SERVICE AUSTIN/SAN ANTONIO TX
200 PM CDT MON SEP 26 2016

NOTE: "FAIR" INDICATED FEW OR NO CLOUDS BELOW 12,000 FEET WITH NO
SIGNIFICANT WEATHER AND/OR OBSTRUCTIONS TO VISIBILITY.

BAJA CALIFORNIA

CITY           SKY/WX    TMP DP  RH WIND       PRES   REMARKS
LORETO         PTSUNNY   86  70  58 NE7       29.86R HX  90
LA PAZ         MOSUNNY   88  63  42 NE3       29.86F
MEXICALI       MOSUNNY   97  37  12 E13       29.94F HX  92
S.J. DEL CABO  MOSUNNY   86  68  54 E6        29.87F
TIJUANA        PTSUNNY   95  28   9 N14       29.96S

NORTHWESTERN MEXICO

CITY           SKY/WX    TMP DP  RH WIND       PRES   REMARKS
CULIACAN       MOSUNNY   88  73  62 CALM      29.84F HX  96
DURANGO        PTSUNNY   68  55  64 W5        30.24F
GUAYMAS        MOSUNNY   91  66  43 CALM      29.81F HX  94
HERMOSILLO     SUNNY     95  57  28 E9        29.89F HX  94
CD. JUAREZ     CLOUDY    61  48  63 E12G23    30.28F
LOS MOCHIS     MOSUNNY   90  64  43 SE3       29.86F HX  91
OBREGON        MOSUNNY   93  54  26 CALM      29.82F HX  91

NORTHEASTERN MEXICO

CITY           SKY/WX    TMP DP  RH WIND       PRES   REMARKS
CHIHUAHUA      DRIZZLE   57  54  88 N16       30.25F FOG
MATAMOROS      CLOUDY    82  73  74 E8        29.96F
MONCLOVA         N/A    N/A N/A N/A MISG        N/A
MONTERREY      CLOUDY    75  72  88 N9        30.03F
NUEVO LAREDO   CLOUDY    79  72  78 NE7       30.04F
PIEDRAS NEGRAS   N/A    N/A N/A N/A MISG        N/A
REYNOSA        PTSUNNY   79  73  83 E7        29.95F
SALTILLO       FOG       66  64  94 CALM      30.24  VSB 1
TORREON        PTSUNNY   75  66  73 CALM      30.13F
CD. VICTORIA   CLOUDY    77  73  88 NE12      29.96S

WESTERN MEXICO

CITY           SKY/WX    TMP DP  RH WIND       PRES   REMARKS
AGUASCALIENTES PTSUNNY   75  52  43 CALM      30.21F
COLIMA         MOSUNNY   82  73  74 CALM      29.94F
DEL BAJIO      PTSUNNY   73  57  56 S6        30.23F
GUADALAJARA    PTSUNNY   77  57  50 E7        30.12F
MANZANILLO       N/A    N/A N/A N/A MISG        N/A
MAZATLAN       MOSUNNY   90  75  62 CALM      29.84F HX 100
P. VALLARTA    PTSUNNY   86  77  74 S9        29.81F HX  97
URUAPAN          N/A    N/A N/A N/A MISG        N/A
ZACATECAS      MOSUNNY   70  55  60 NE9       30.26F

CENTRAL MEXICO

CITY           SKY/WX    TMP DP  RH WIND       PRES   REMARKS
CUERNAVACA     PTSUNNY   75  66  73 E5        30.07F
MEXICO CITY    PTSUNNY   72  52  49 N9        30.26F
MORELIA        PTSUNNY   75  61  60 N3        30.17F
POZA RICA      CLOUDY    86  79  79 S5        29.90F HX  99
PUEBLA         CLOUDY    66  52  59 NE8       30.26F
QUERETARO      PTSUNNY   75  55  50 NE6       30.24F
S. LUIS POTOSI PTSUNNY   73  48  40 NE7       30.20F
TAMPICO        PTSUNNY   86  77  74 NE9       29.88F HX  97
TOLUCA         PTSUNNY   66  50  55 NE6       30.32F

SOUTHERN MEXICO

CITY           SKY/WX    TMP DP  RH WIND       PRES   REMARKS
ACAPULCO       PTSUNNY   86  75  70 SE9       29.83F HX  95
B. DE HUATULCO PTSUNNY   81  68  65 E17       29.93F
OAXACA         CLOUDY    72  59  64 E9        30.13F
P. ESCONDIDO   MOSUNNY   84  75  74 SE20      29.93F HX  92
VERACRUZ       PTSUNNY   86  75  70 E6        29.86F HX  95
ZIHUATANEJO    PTSUNNY   90  75  62 S7        29.82F HX 100

YUCATAN PENINSULA

CITY           SKY/WX    TMP DP  RH WIND       PRES   REMARKS
CAMPECHE       CLOUDY    88  79  74 E6        29.84F HX 102
CANCUN         CLOUDY    86  79  79 SE7       29.92F HX  99
CHETUMAL       MOSUNNY   88  77  70 E15       29.86F HX 100
CD. DEL CARMEN CLOUDY    88  75  66 S5        29.84F HX  97
COZUMEL        PTSUNNY   86  79  79 CALM      29.93F HX  99
MERIDA         CLOUDY    88  77  70 SE6       29.88F HX 100
MINATITLAN     PTSUNNY   90  81  74 CALM      29.83R HX 108
TAPACHULA      MOSUNNY   88  77  70 W7        29.81  HX 100
TUX. GUTIERREZ MOSUNNY   82  70  65 CALM      29.90F
VILLAHERMOSA   PTSUNNY   86  77  74 NE8       29.88F HX  97

CENTRAL AMERICA

CITY           SKY/WX    TMP DP  RH WIND       PRES   REMARKS
BELIZE CITY    MOSUNNY   88  79  74 SE7       29.87F HX 102
MANAGUA        PTCLDY    90  73  58 E14       29.77F HX  98

CARIBBEAN

CITY           SKY/WX    TMP DP  RH WIND       PRES   REMARKS
ARUBA          MOSUNNY   90  81  74 E21       29.80S HX 108
CURACAO        MOSUNNY   90  75  62 E16       29.83F HX 100
NASSAU         PTSUNNY   86  73  66 NW3       29.96F HX  93
SAN JUAN       MOSUNNY   88  77  70 NE14      29.92F HX 100
SANTO DOMINGO  MOSUNNY   88  75  66 S8        29.89S HX  97
ST. CROIX      MOSUNNY   84  79  84 SE12      29.91F HX  96
ST. KITTS      MOSUNNY   86  77  74 NE13      29.89F HX  97
ST. MAARTEN    MOSUNNY   90  77  66 E6        29.89F HX 102
ST. THOMAS     MOSUNNY   88  79  74 SE8       29.91F HX 102

$$





USA.gov is the U.S. government's official web portal to all federal, state and local government web resources and services.